QPF
0.01 0.01 0.01 0.01 0.00 0.00 0.00 0.00 0.00 0.00 0.00 0.00 0.00 0.00 0.00 0.00 0.00 0.00 0.00 0.00 0.00 0.00 0.00 0.00 0.00 0.00 0.00 0.00 0.00 0.00 0.00 0.00 0.00 0.00 0.00 0.00 0.00 0.00 0.00 0.00 0.00 0.00 0.00 0.00
0.00 0.00 0.00 0.01 0.01 0.00 0.00 0.00 0.00 0.00 0.00 0.00 0.00 0.00 0.00 0.00 0.00 0.00 0.00 0.00 0.00 0.00 0.00 0.00 0.00 0.00 0.00 0.00 0.00 0.00 0.00 0.00 0.00 0.00 0.00 0.00 0.00 0.00 0.00 0.00 0.00 0.00 0.00 0.00
0.00 0.01 0.01 0.00 0.01 0.01 0.00 0.00 0.00 0.00 0.00 0.00 0.00 0.00 0.00 0.00 0.00 0.00 0.00 0.00 0.00 0.00 0.00 0.00 0.00 0.00 0.00 0.00 0.00 0.00 0.00 0.00 0.00 0.00 0.00 0.00 0.00 0.00 0.00 0.00 0.00 0.00 0.00 0.00
0.00 0.01 0.00 0.00 0.00 0.00 0.00 0.00 0.00 0.00 0.00 0.00 0.00 0.00 0.00 0.00 0.00 0.00 0.00 0.00 0.00 0.00 0.00 0.00 0.00 0.00 0.00 0.00 0.00 0.00 0.00 0.00 0.00 0.00 0.00 0.00 0.00 0.00 0.00 0.00 0.00 0.00 0.00 0.00
0.01 0.01 0.00 0.00 0.00 0.00 0.00 0.00 0.00 0.00 0.00 0.00 0.00 0.00 0.00 0.00 0.00 0.00 0.00 0.00 0.00 0.00 0.00 0.00 0.00 0.00 0.00 0.00 0.00 0.00 0.00 0.00 0.00 0.00 0.00 0.00 0.00 0.00 0.00 0.00 0.00 0.00 0.00 0.00
0.01 0.01 0.00 0.00 0.00 0.00 0.00 0.00 0.00 0.00 0.00 0.00 0.00 0.00 0.00 0.00 0.00 0.00 0.00 0.00 0.00 0.00 0.00 0.00 0.00 0.00 0.00 0.00 0.00 0.00 0.00 0.00 0.00 0.00 0.00 0.00 0.00 0.00 0.00 0.00 0.00 0.00 0.00 0.00
0.02 0.02 0.01 0.00 0.00 0.00 0.00 0.00 0.00 0.00 0.00 0.00 0.00 0.00 0.00 0.00 0.00 0.00 0.00 0.00 0.00 0.00 0.00 0.00 0.00 0.00 0.00 0.00 0.00 0.00 0.00 0.00 0.00 0.00 0.00 0.00 0.00 0.00 0.00 0.00 0.00 0.00 0.00 0.01
0.01 0.01 0.00 0.00 0.00 0.00 0.00 0.00 0.00 0.00 0.00 0.00 0.00 0.00 0.00 0.00 0.00 0.00 0.00 0.00 0.00 0.00 0.00 0.00 0.00 0.00 0.00 0.00 0.00 0.00 0.00 0.00 0.00 0.00 0.00 0.00 0.00 0.00 0.00 0.00 0.00 0.00 0.00 0.00
0.00 0.00 0.00 0.00 0.00 0.00 0.00 0.00 0.00 0.00 0.00 0.00 0.00 0.00 0.00 0.00 0.00 0.00 0.00 0.00 0.00 0.00 0.00 0.00 0.00 0.00 0.00 0.00 0.00 0.00 0.00 0.00 0.00 0.00 0.00 0.00 0.00 0.00 0.00 0.00 0.00 0.01 0.00 0.00
0.00 0.00 0.00 0.00 0.00 0.00 0.00 0.00 0.00 0.00 0.00 0.00 0.00 0.00 0.00 0.00 0.00 0.00 0.00 0.00 0.00 0.00 0.00 0.00 0.00 0.00 0.00 0.00 0.00 0.00 0.00 0.00 0.00 0.00 0.00 0.00 0.00 0.00 0.00 0.00 0.01 0.01 0.01 0.01
0.00 0.00 0.00 0.00 0.00 0.00 0.00 0.00 0.00 0.00 0.00 0.00 0.00 0.00 0.00 0.00 0.00 0.00 0.00 0.00 0.00 0.00 0.00 0.00 0.00 0.00 0.00 0.00 0.00 0.00 0.00 0.00 0.00 0.00 0.00 0.00 0.00 0.00 0.00 0.00 0.01 0.01 0.01 0.01
0.00 0.00 0.00 0.00 0.00 0.00 0.00 0.00 0.00 0.00 0.00 0.00 0.00 0.00 0.00 0.00 0.00 0.00 0.00 0.00 0.00 0.00 0.00 0.00 0.00 0.00 0.00 0.00 0.00 0.00 0.00 0.00 0.00 0.00 0.00 0.00 0.00 0.00 0.00 0.00 0.00 0.01 0.01 0.01
0.00 0.00 0.00 0.00 0.00 0.00 0.00 0.00 0.00 0.00 0.00 0.00 0.00 0.00 0.00 0.00 0.00 0.00 0.00 0.00 0.00 0.00 0.00 0.00 0.00 0.00 0.00 0.00 0.00 0.00 0.00 0.00 0.00 0.00 0.00 0.00 0.00 0.00 0.00 0.00 0.00 0.01 0.01 0.00
0.00 0.00 0.00 0.00 0.00 0.00 0.00 0.00 0.00 0.00 0.00 0.00 0.00 0.00 0.00 0.00 0.00 0.00 0.00 0.00 0.00 0.00 0.00 0.00 0.00 0.00 0.00 0.00 0.00 0.00 0.00 0.00 0.00 0.00 0.00 0.00 0.00 0.01 0.01 0.00 0.00 0.01 0.01 0.01
0.00 0.00 0.00 0.00 0.00 0.00 0.00 0.00 0.00 0.00 0.00 0.00 0.00 0.00 0.00 0.00 0.00 0.00 0.00 0.00 0.00 0.00 0.00 0.00 0.00 0.00 0.00 0.00 0.00 0.00 0.00 0.00 0.00 0.00 0.00 0.00 0.00 0.01 0.01 0.00 0.00 0.01 0.00 0.01
0.01 0.02 0.01 0.01 0.01 0.00 0.00 0.00 0.00 0.00 0.00 0.00 0.00 0.00 0.00 0.00 0.00 0.00 0.00 0.00 0.00 0.00 0.00 0.00 0.00 0.00 0.00 0.00 0.00 0.00 0.00 0.00 0.00 0.00 0.00 0.00 0.00 0.01 0.01 0.00 0.00 0.00 0.00 0.00
0.03 0.03 0.03 0.02 0.02 0.01 0.01 0.01 0.01 0.01 0.01 0.01 0.00 0.00 0.00 0.00 0.00 0.00 0.00 0.00 0.00 0.00 0.00 0.00 0.00 0.00 0.00 0.00 0.00 0.00 0.00 0.00 0.00 0.00 0.00 0.00 0.00 0.01 0.01 0.00 0.00 0.01 0.01 0.01
0.03 0.04 0.04 0.03 0.02 0.02 0.02 0.01 0.01 0.01 0.01 0.01 0.01 0.01 0.01 0.01 0.00 0.00 0.00 0.00 0.00 0.00 0.00 0.00 0.00 0.00 0.00 0.00 0.00 0.00 0.00 0.00 0.00 0.00 0.00 0.00 0.00 0.01 0.00 0.00 0.01 0.01 0.01 0.01
0.03 0.03 0.03 0.03 0.03 0.02 0.03 0.03 0.02 0.02 0.02 0.02 0.01 0.01 0.01 0.00 0.00 0.00 0.00 0.00 0.00 0.00 0.00 0.00 0.00 0.00 0.00 0.00 0.00 0.00 0.00 0.00 0.00 0.00 0.00 0.00 0.00 0.00 0.00 0.00 0.01 0.01 0.01 0.02
0.02 0.02 0.03 0.03 0.03 0.03 0.03 0.03 0.03 0.02 0.02 0.01 0.01 0.01 0.00 0.00 0.00 0.00 0.00 0.00 0.00 0.00 0.00 0.00 0.00 0.00 0.00 0.00 0.00 0.00 0.00 0.00 0.00 0.00 0.00 0.00 0.00 0.00 0.00 0.01 0.01 0.01 0.01 0.01
0.03 0.03 0.03 0.03 0.02 0.03 0.03 0.03 0.02 0.02 0.01 0.01 0.01 0.01 0.00 0.00 0.00 0.00 0.00 0.00 0.00 0.00 0.00 0.00 0.00 0.00 0.00 0.00 0.00 0.00 0.00 0.00 0.00 0.00 0.00 0.00 0.00 0.00 0.00 0.00 0.01 0.01 0.01 0.01
0.03 0.03 0.02 0.02 0.02 0.02 0.02 0.02 0.01 0.01 0.01 0.01 0.01 0.01 0.01 0.01 0.01 0.01 0.00 0.00 0.00 0.00 0.00 0.00 0.00 0.00 0.00 0.00 0.00 0.00 0.00 0.00 0.00 0.00 0.00 0.00 0.00 0.00 0.00 0.00 0.01 0.01 0.01 0.01
0.01 0.02 0.02 0.02 0.01 0.01 0.01 0.01 0.01 0.01 0.01 0.01 0.01 0.01 0.01 0.01 0.00 0.00 0.00 0.00 0.00 0.00 0.00 0.00 0.01 0.01 0.01 0.01 0.00 0.00 0.00 0.00 0.00 0.00 0.00 0.00 0.00 0.00 0.00 0.01 0.01 0.01 0.01 0.01
0.01 0.01 0.01 0.01 0.01 0.00 0.00 0.00 0.00 0.00 0.00 0.00 0.01 0.00 0.00 0.00 0.00 0.00 0.00 0.00 0.00 0.01 0.01 0.01 0.01 0.01 0.00 0.00 0.00 0.00 0.00 0.00 0.00 0.00 0.00 0.00 0.01 0.01 0.01 0.01 0.01 0.02 0.02 0.01
0.00 0.00 0.00 0.00 0.00 0.00 0.00 0.00 0.00 0.00 0.00 0.00 0.00 0.00 0.00 0.00 0.00 0.00 0.00 0.01 0.01 0.01 0.01 0.01 0.00 0.00 0.00 0.00 0.00 0.00 0.00 0.00 0.00 0.00 0.00 0.01 0.01 0.01 0.01 0.01 0.02 0.02 0.02 0.01
0.00 0.00 0.00 0.00 0.00 0.00 0.00 0.00 0.00 0.00 0.00 0.00 0.00 0.00 0.00 0.01 0.01 0.01 0.01 0.01 0.01 0.02 0.01 0.01 0.01 0.01 0.01 0.00 0.00 0.00 0.00 0.00 0.00 0.01 0.01 0.01 0.02 0.01 0.01 0.01 0.01 0.01 0.01 0.01
0.00 0.00 0.00 0.00 0.00 0.00 0.00 0.00 0.00 0.00 0.00 0.00 0.00 0.01 0.01 0.01 0.01 0.02 0.02 0.02 0.02 0.03 0.02 0.02 0.02 0.01 0.01 0.01 0.00 0.00 0.00 0.00 0.01 0.01 0.01 0.02 0.02 0.02 0.01 0.01 0.01 0.01 0.01 0.01
MSLP
1014.53 1014.82 1015.15 1015.54 1015.94 1016.32 1016.64 1016.83 1016.89 1016.80 1016.59 1016.29 1015.97 1015.68 1015.47 1015.38 1015.41 1015.54 1015.74 1015.96 1016.15 1016.26 1016.27 1016.18 1016.00 1015.74 1015.43 1015.10 1014.77 1014.44 1014.11 1013.77 1013.42 1013.06 1012.69 1012.31 1011.94 1011.58 1011.27 1010.99 1010.74 1010.52 1010.31 1010.08
1014.65 1014.89 1015.12 1015.34 1015.57 1015.77 1015.92 1016.01 1016.03 1015.97 1015.85 1015.70 1015.55 1015.45 1015.40 1015.43 1015.53 1015.69 1015.87 1016.03 1016.15 1016.20 1016.16 1016.05 1015.86 1015.61 1015.33 1015.03 1014.71 1014.38 1014.04 1013.68 1013.30 1012.90 1012.48 1012.06 1011.66 1011.29 1010.96 1010.67 1010.41 1010.18 1009.95 1009.72
1014.87 1015.03 1015.15 1015.24 1015.30 1015.34 1015.36 1015.36 1015.34 1015.31 1015.26 1015.23 1015.22 1015.26 1015.34 1015.46 1015.61 1015.78 1015.93 1016.05 1016.11 1016.11 1016.03 1015.90 1015.71 1015.48 1015.22 1014.93 1014.63 1014.31 1013.95 1013.57 1013.16 1012.72 1012.27 1011.82 1011.40 1011.01 1010.66 1010.36 1010.09 1009.84 1009.59 1009.33
1015.14 1015.21 1015.22 1015.18 1015.11 1015.02 1014.94 1014.87 1014.82 1014.80 1014.81 1014.86 1014.95 1015.09 1015.25 1015.43 1015.61 1015.78 1015.91 1015.99 1016.02 1015.98 1015.89 1015.75 1015.57 1015.35 1015.11 1014.85 1014.55 1014.22 1013.86 1013.45 1013.01 1012.55 1012.07 1011.60 1011.16 1010.76 1010.40 1010.08 1009.80 1009.53 1009.27 1008.99
1015.36 1015.33 1015.22 1015.07 1014.89 1014.72 1014.56 1014.45 1014.39 1014.38 1014.43 1014.54 1014.70 1014.89 1015.11 1015.32 1015.51 1015.68 1015.80 1015.86 1015.87 1015.82 1015.73 1015.60 1015.44 1015.24 1015.02 1014.77 1014.47 1014.14 1013.75 1013.33 1012.86 1012.38 1011.88 1011.41 1010.96 1010.56 1010.19 1009.87 1009.58 1009.30 1009.01 1008.71
1015.40 1015.26 1015.04 1014.80 1014.54 1014.31 1014.12 1014.00 1013.94 1013.96 1014.06 1014.21 1014.41 1014.64 1014.88 1015.11 1015.31 1015.47 1015.58 1015.64 1015.65 1015.62 1015.55 1015.45 1015.31 1015.14 1014.94 1014.69 1014.40 1014.05 1013.64 1013.20 1012.71 1012.21 1011.71 1011.24 1010.80 1010.40 1010.05 1009.73 1009.43 1009.15 1008.85 1008.53
1015.16 1014.89 1014.58 1014.26 1013.96 1013.71 1013.53 1013.43 1013.41 1013.48 1013.62 1013.82 1014.05 1014.31 1014.56 1014.79 1015.00 1015.15 1015.27 1015.34 1015.37 1015.37 1015.34 1015.27 1015.17 1015.03 1014.85 1014.61 1014.30 1013.94 1013.52 1013.05 1012.56 1012.05 1011.56 1011.09 1010.67 1010.29 1009.96 1009.65 1009.37 1009.08 1008.78 1008.46
1014.56 1014.18 1013.79 1013.42 1013.11 1012.88 1012.74 1012.69 1012.74 1012.88 1013.09 1013.34 1013.62 1013.90 1014.17 1014.41 1014.61 1014.77 1014.90 1014.99 1015.05 1015.08 1015.09 1015.06 1015.00 1014.89 1014.72 1014.49 1014.18 1013.81 1013.37 1012.89 1012.39 1011.89 1011.40 1010.96 1010.56 1010.22 1009.91 1009.63 1009.37 1009.10 1008.80 1008.49
1013.66 1013.17 1012.71 1012.32 1012.02 1011.83 1011.77 1011.81 1011.96 1012.19 1012.48 1012.80 1013.13 1013.45 1013.73 1013.98 1014.19 1014.36 1014.50 1014.61 1014.69 1014.76 1014.81 1014.82 1014.79 1014.71 1014.55 1014.32 1014.01 1013.63 1013.19 1012.70 1012.20 1011.71 1011.25 1010.84 1010.48 1010.17 1009.90 1009.65 1009.41 1009.16 1008.89 1008.58
1012.55 1011.98 1011.48 1011.07 1010.80 1010.68 1010.70 1010.85 1011.11 1011.45 1011.84 1012.24 1012.63 1012.98 1013.29 1013.56 1013.77 1013.95 1014.10 1014.22 1014.33 1014.43 1014.50 1014.54 1014.54 1014.47 1014.33 1014.10 1013.79 1013.41 1012.97 1012.49 1012.00 1011.53 1011.10 1010.72 1010.40 1010.13 1009.90 1009.69 1009.48 1009.26 1009.00 1008.72
1011.44 1010.79 1010.25 1009.84 1009.60 1009.55 1009.66 1009.92 1010.29 1010.74 1011.22 1011.70 1012.16 1012.56 1012.89 1013.17 1013.39 1013.57 1013.72 1013.86 1013.98 1014.09 1014.18 1014.24 1014.24 1014.19 1014.05 1013.83 1013.53 1013.15 1012.72 1012.26 1011.79 1011.35 1010.95 1010.61 1010.33 1010.10 1009.90 1009.73 1009.55 1009.35 1009.12 1008.85
1010.50 1009.79 1009.21 1008.80 1008.59 1008.59 1008.77 1009.12 1009.58 1010.12 1010.68 1011.24 1011.74 1012.18 1012.55 1012.84 1013.06 1013.24 1013.39 1013.52 1013.64 1013.75 1013.84 1013.91 1013.92 1013.87 1013.74 1013.53 1013.24 1012.87 1012.46 1012.02 1011.59 1011.18 1010.81 1010.51 1010.26 1010.06 1009.89 1009.74 1009.59 1009.41 1009.20 1008.95
1009.89 1009.14 1008.52 1008.09 1007.89 1007.90 1008.13 1008.52 1009.04 1009.64 1010.26 1010.86 1011.40 1011.87 1012.24 1012.54 1012.77 1012.94 1013.08 1013.20 1013.31 1013.41 1013.50 1013.56 1013.57 1013.52 1013.41 1013.21 1012.94 1012.60 1012.21 1011.81 1011.41 1011.03 1010.70 1010.42 1010.19 1010.01 1009.86 1009.72 1009.58 1009.41 1009.21 1008.97
1009.69 1008.89 1008.23 1007.77 1007.54 1007.55 1007.77 1008.17 1008.71 1009.32 1009.95 1010.56 1011.12 1011.59 1011.96 1012.26 1012.47 1012.64 1012.76 1012.87 1012.96 1013.05 1013.13 1013.18 1013.20 1013.16 1013.06 1012.88 1012.64 1012.33 1011.99 1011.62 1011.25 1010.90 1010.59 1010.33 1010.12 1009.94 1009.79 1009.65 1009.50 1009.33 1009.13 1008.89
1009.87 1009.03 1008.33 1007.83 1007.56 1007.52 1007.70 1008.06 1008.56 1009.14 1009.74 1010.33 1010.86 1011.31 1011.67 1011.94 1012.14 1012.29 1012.40 1012.49 1012.57 1012.65 1012.72 1012.78 1012.80 1012.78 1012.70 1012.55 1012.34 1012.08 1011.77 1011.44 1011.11 1010.79 1010.50 1010.25 1010.03 1009.84 1009.67 1009.51 1009.34 1009.15 1008.94 1008.70
1010.35 1009.48 1008.75 1008.20 1007.87 1007.76 1007.86 1008.15 1008.57 1009.07 1009.61 1010.13 1010.61 1011.01 1011.33 1011.57 1011.74 1011.86 1011.95 1012.03 1012.10 1012.18 1012.25 1012.31 1012.35 1012.35 1012.31 1012.20 1012.04 1011.82 1011.56 1011.27 1010.97 1010.67 1010.39 1010.13 1009.90 1009.69 1009.49 1009.30 1009.10 1008.89 1008.66 1008.41
1010.99 1010.12 1009.36 1008.77 1008.37 1008.18 1008.19 1008.37 1008.68 1009.08 1009.52 1009.95 1010.34 1010.67 1010.93 1011.12 1011.26 1011.35 1011.41 1011.47 1011.54 1011.61 1011.69 1011.77 1011.83 1011.87 1011.86 1011.81 1011.70 1011.53 1011.32 1011.08 1010.81 1010.53 1010.25 1009.98 1009.73 1009.48 1009.25 1009.02 1008.79 1008.55 1008.30 1008.04
1011.68 1010.82 1010.05 1009.43 1008.97 1008.70 1008.61 1008.68 1008.87 1009.15 1009.46 1009.78 1010.06 1010.30 1010.48 1010.61 1010.69 1010.74 1010.77 1010.81 1010.87 1010.94 1011.03 1011.13 1011.22 1011.30 1011.34 1011.34 1011.29 1011.18 1011.02 1010.82 1010.58 1010.32 1010.05 1009.77 1009.50 1009.23 1008.97 1008.70 1008.44 1008.18 1007.92 1007.65
1012.29 1011.47 1010.71 1010.08 1009.58 1009.25 1009.07 1009.03 1009.10 1009.24 1009.42 1009.61 1009.78 1009.91 1010.00 1010.04 1010.05 1010.05 1010.05 1010.06 1010.10 1010.17 1010.27 1010.39 1010.52 1010.64 1010.73 1010.79 1010.79 1010.74 1010.63 1010.48 1010.28 1010.04 1009.78 1009.50 1009.22 1008.94 1008.65 1008.38 1008.10 1007.83 1007.57 1007.31
1012.77 1012.00 1011.28 1010.65 1010.14 1009.77 1009.52 1009.38 1009.34 1009.36 1009.42 1009.48 1009.52 1009.53 1009.51 1009.47 1009.40 1009.33 1009.28 1009.25 1009.27 1009.33 1009.43 1009.56 1009.72 1009.88 1010.02 1010.13 1010.19 1010.20 1010.15 1010.04 1009.88 1009.67 1009.44 1009.18 1008.90 1008.63 1008.35 1008.08 1007.82 1007.56 1007.32 1007.09
1013.11 1012.40 1011.73 1011.13 1010.62 1010.22 1009.93 1009.72 1009.59 1009.50 1009.44 1009.38 1009.30 1009.20 1009.07 1008.92 1008.76 1008.62 1008.50 1008.43 1008.41 1008.45 1008.54 1008.68 1008.86 1009.04 1009.22 1009.38 1009.50 1009.56 1009.56 1009.51 1009.40 1009.24 1009.04 1008.81 1008.57 1008.32 1008.08 1007.84 1007.62 1007.41 1007.21 1007.02
1013.31 1012.66 1012.05 1011.49 1011.01 1010.61 1010.28 1010.03 1009.83 1009.65 1009.49 1009.32 1009.13 1008.91 1008.67 1008.42 1008.18 1007.95 1007.76 1007.63 1007.57 1007.57 1007.65 1007.78 1007.96 1008.17 1008.38 1008.58 1008.74 1008.85 1008.91 1008.91 1008.85 1008.75 1008.60 1008.43 1008.24 1008.05 1007.87 1007.69 1007.53 1007.39 1007.25 1007.12
1013.40 1012.81 1012.26 1011.74 1011.29 1010.90 1010.57 1010.29 1010.03 1009.79 1009.55 1009.29 1009.00 1008.68 1008.34 1007.99 1007.66 1007.35 1007.09 1006.89 1006.77 1006.74 1006.79 1006.91 1007.08 1007.30 1007.53 1007.75 1007.95 1008.11 1008.22 1008.27 1008.28 1008.23 1008.16 1008.05 1007.94 1007.83 1007.72 1007.63 1007.55 1007.49 1007.43 1007.37
1013.39 1012.86 1012.35 1011.88 1011.46 1011.09 1010.77 1010.47 1010.18 1009.89 1009.59 1009.25 1008.88 1008.48 1008.05 1007.62 1007.20 1006.81 1006.48 1006.22 1006.05 1005.98 1005.99 1006.09 1006.25 1006.46 1006.71 1006.95 1007.18 1007.38 1007.53 1007.64 1007.71 1007.73 1007.72 1007.70 1007.67 1007.65 1007.63 1007.63 1007.65 1007.68 1007.71 1007.73
1013.29 1012.80 1012.33 1011.90 1011.52 1011.17 1010.85 1010.55 1010.25 1009.92 1009.57 1009.18 1008.75 1008.28 1007.79 1007.28 1006.79 1006.34 1005.95 1005.63 1005.41 1005.29 1005.28 1005.35 1005.50 1005.71 1005.95 1006.21 1006.47 1006.70 1006.89 1007.05 1007.18 1007.27 1007.33 1007.39 1007.45 1007.51 1007.59 1007.69 1007.80 1007.92 1008.03 1008.13
1013.09 1012.62 1012.19 1011.79 1011.44 1011.11 1010.81 1010.50 1010.19 1009.85 1009.47 1009.04 1008.56 1008.05 1007.50 1006.95 1006.40 1005.90 1005.46 1005.11 1004.85 1004.69 1004.65 1004.70 1004.84 1005.04 1005.29 1005.56 1005.84 1006.10 1006.34 1006.54 1006.72 1006.87 1007.01 1007.14 1007.27 1007.42 1007.58 1007.76 1007.96 1008.15 1008.34 1008.50
1012.78 1012.33 1011.93 1011.55 1011.22 1010.91 1010.61 1010.31 1010.00 1009.64 1009.24 1008.79 1008.28 1007.73 1007.16 1006.57 1006.00 1005.46 1005.00 1004.61 1004.33 1004.16 1004.10 1004.14 1004.28 1004.48 1004.74 1005.02 1005.32 1005.61 1005.89 1006.14 1006.37 1006.57 1006.77 1006.97 1007.17 1007.38 1007.61 1007.86 1008.11 1008.37 1008.61 1008.82
Thickness
5721 5726 5727 5726 5726 5718 5709 5700 5691 5696 5694 5702 5703 5702 5699 5694 5689 5685 5680 5675 5670 5663 5657 5651 5646 5641 5636 5631 5627 5622 5616 5611 5606 5601 5596 5592 5588 5584 5580 5577 5575 5571 5569 5567
5722 5728 5727 5724 5726 5721 5716 5708 5704 5702 5699 5708 5705 5700 5695 5690 5685 5680 5675 5671 5666 5660 5653 5647 5641 5636 5631 5626 5621 5615 5609 5605 5600 5595 5590 5585 5581 5577 5573 5569 5566 5563 5561 5559
5706 5716 5721 5710 5722 5720 5717 5715 5707 5699 5703 5707 5701 5696 5692 5687 5682 5677 5672 5667 5662 5656 5649 5643 5637 5632 5626 5621 5615 5609 5604 5599 5595 5589 5584 5579 5575 5571 5566 5562 5559 5556 5553 5551
5698 5707 5696 5712 5729 5727 5719 5716 5713 5711 5709 5704 5701 5697 5692 5687 5681 5675 5670 5665 5659 5652 5646 5639 5633 5627 5621 5616 5610 5605 5599 5595 5590 5584 5579 5574 5570 5565 5561 5556 5553 5550 5548 5546
5689 5692 5700 5716 5726 5722 5714 5711 5717 5711 5707 5702 5696 5691 5687 5687 5682 5676 5670 5663 5656 5650 5643 5636 5630 5624 5617 5611 5606 5600 5596 5591 5586 5580 5575 5570 5566 5562 5557 5552 5549 5546 5543 5541
5690 5693 5690 5713 5732 5730 5719 5704 5718 5711 5704 5695 5689 5675 5679 5687 5682 5675 5669 5661 5654 5647 5640 5633 5627 5620 5613 5608 5602 5597 5593 5588 5582 5577 5571 5567 5563 5558 5553 5548 5545 5542 5539 5536
5692 5693 5701 5727 5733 5726 5700 5703 5723 5713 5704 5693 5687 5686 5687 5686 5680 5674 5667 5660 5653 5645 5636 5630 5624 5617 5610 5605 5600 5595 5590 5585 5580 5574 5569 5565 5561 5556 5551 5546 5542 5538 5535 5533
5688 5690 5700 5733 5725 5716 5718 5728 5723 5714 5707 5698 5694 5691 5686 5682 5676 5670 5663 5657 5650 5641 5634 5628 5622 5614 5608 5603 5599 5593 5587 5583 5578 5573 5568 5564 5558 5554 5549 5544 5540 5536 5533 5530
5707 5713 5730 5733 5733 5736 5731 5725 5721 5715 5708 5701 5694 5688 5684 5678 5672 5666 5660 5653 5647 5639 5632 5626 5620 5612 5606 5602 5597 5591 5586 5581 5576 5571 5567 5562 5556 5552 5548 5543 5538 5534 5530 5527
5712 5724 5732 5734 5735 5734 5731 5728 5724 5717 5710 5702 5694 5689 5682 5675 5669 5663 5657 5651 5644 5637 5630 5625 5619 5612 5606 5601 5595 5589 5584 5579 5575 5570 5566 5561 5556 5551 5546 5542 5537 5533 5529 5525
5714 5724 5730 5736 5736 5734 5731 5727 5721 5715 5709 5703 5695 5688 5681 5674 5667 5661 5655 5649 5642 5635 5628 5623 5618 5612 5606 5600 5593 5587 5582 5578 5573 5569 5564 5560 5556 5551 5546 5541 5535 5530 5526 5522
5714 5728 5725 5731 5738 5734 5728 5724 5720 5713 5706 5701 5695 5688 5681 5674 5667 5661 5654 5647 5640 5634 5628 5622 5616 5610 5605 5599 5592 5585 5581 5577 5572 5567 5563 5558 5554 5552 5548 5542 5537 5532 5525 5520
5727 5734 5730 5735 5735 5732 5728 5725 5720 5714 5708 5700 5694 5688 5680 5673 5666 5659 5653 5646 5640 5634 5627 5621 5615 5609 5604 5598 5591 5584 5579 5574 5570 5566 5562 5558 5553 5549 5547 5545 5540 5535 5529 5524
5728 5728 5727 5729 5729 5729 5727 5723 5718 5711 5705 5699 5692 5684 5677 5670 5664 5657 5652 5646 5640 5633 5626 5620 5614 5609 5603 5596 5589 5584 5579 5574 5570 5565 5561 5557 5553 5549 5544 5541 5538 5536 5531 5526
5724 5724 5724 5726 5726 5723 5720 5715 5708 5702 5697 5691 5685 5679 5672 5666 5661 5656 5651 5644 5637 5631 5625 5618 5612 5608 5602 5595 5588 5583 5578 5574 5570 5565 5561 5557 5553 5549 5545 5541 5537 5534 5531 5528
5716 5718 5718 5717 5714 5712 5709 5705 5700 5696 5691 5685 5679 5674 5669 5664 5658 5653 5647 5641 5634 5629 5624 5617 5611 5607 5600 5593 5587 5582 5577 5574 5570 5566 5561 5558 5554 5551 5547 5543 5539 5535 5532 5529
5703 5704 5704 5703 5703 5702 5700 5699 5695 5691 5686 5680 5675 5670 5663 5657 5652 5648 5644 5638 5633 5628 5622 5615 5610 5605 5598 5591 5585 5580 5576 5572 5569 5565 5561 5557 5554 5551 5547 5543 5540 5537 5534 5530
5694 5695 5696 5696 5695 5693 5691 5690 5688 5684 5680 5677 5672 5665 5658 5653 5649 5646 5641 5635 5628 5623 5619 5614 5608 5602 5596 5590 5584 5578 5573 5569 5566 5563 5560 5557 5554 5551 5547 5544 5541 5539 5536 5533
5683 5684 5685 5685 5685 5683 5680 5678 5676 5674 5672 5669 5664 5658 5653 5649 5645 5641 5635 5628 5623 5620 5618 5613 5606 5599 5593 5587 5582 5576 5571 5568 5565 5562 5559 5556 5554 5551 5548 5545 5543 5540 5537 5534
5670 5672 5673 5673 5673 5671 5669 5668 5667 5664 5661 5658 5655 5651 5646 5643 5639 5634 5629 5625 5622 5619 5615 5609 5602 5596 5590 5584 5579 5574 5569 5565 5563 5560 5558 5555 5552 5550 5548 5545 5543 5541 5539 5536
5654 5656 5657 5657 5657 5657 5657 5656 5654 5652 5651 5648 5645 5643 5640 5637 5633 5627 5622 5621 5621 5615 5609 5603 5597 5591 5585 5580 5575 5570 5566 5563 5560 5558 5555 5553 5551 5549 5547 5545 5543 5541 5539 5537
5639 5641 5642 5643 5642 5642 5642 5642 5641 5640 5640 5638 5636 5634 5631 5628 5625 5621 5618 5617 5616 5609 5603 5597 5592 5586 5581 5576 5571 5567 5563 5560 5558 5555 5552 5550 5548 5547 5545 5544 5542 5541 5539 5537
5624 5625 5626 5626 5626 5626 5628 5629 5628 5628 5627 5626 5625 5623 5621 5619 5616 5613 5612 5612 5607 5602 5597 5592 5586 5581 5576 5571 5567 5563 5560 5557 5555 5552 5550 5547 5546 5544 5543 5542 5540 5539 5538 5537
5609 5610 5611 5612 5613 5614 5614 5615 5614 5614 5614 5613 5613 5612 5610 5608 5608 5607 5605 5603 5599 5594 5590 5585 5579 5574 5569 5565 5561 5559 5556 5553 5551 5549 5547 5545 5543 5542 5541 5540 5539 5538 5537 5536
5595 5595 5596 5597 5597 5598 5598 5599 5599 5601 5601 5601 5602 5601 5599 5597 5596 5597 5594 5592 5589 5584 5580 5576 5571 5566 5562 5559 5556 5553 5551 5548 5546 5545 5543 5542 5541 5539 5538 5537 5536 5535 5535 5534
5579 5578 5579 5579 5580 5580 5581 5582 5583 5584 5585 5586 5587 5588 5587 5586 5585 5584 5582 5581 5578 5574 5570 5567 5563 5558 5555 5553 5550 5548 5545 5543 5542 5540 5539 5538 5537 5536 5535 5534 5533 5532 5531 5531
5562 5562 5563 5565 5566 5566 5566 5566 5567 5568 5569 5569 5570 5572 5572 5572 5571 5570 5569 5568 5566 5563 5560 5557 5554 5551 5548 5546 5544 5542 5540 5538 5536 5535 5534 5533 5533 5532 5531 5530 5529 5529 5528 5528